Wind_Speed
10 11 15 16 17 24 18 15 16 15 14 12 17 20 18 26 26 25 29 29 25 25 27 23 25 27 29 27 27 27 27 25 25 24 22 21 22 24 27 29 30 30 29 28
15 21 16 18 18 14 16 18 22 24 23 25 25 24 21 24 32 30 31 31 28 26 30 27 26 29 30 30 30 29 27 26 24 22 20 20 22 25 27 28 28 29 30 31
20 18 8 13 14 17 20 21 22 26 25 28 27 30 26 27 33 34 29 32 28 27 31 31 29 31 31 32 29 27 26 25 22 21 20 21 23 25 26 27 27 27 27 28
21 19 25 22 20 20 26 21 25 26 22 29 25 29 31 29 29 32 32 29 26 24 29 32 30 31 31 29 26 26 26 23 21 21 21 23 24 25 25 24 25 25 26 27
16 8 16 19 20 19 24 18 15 16 19 23 32 23 45 27 31 31 36 27 24 29 32 33 34 35 31 27 24 24 24 21 20 20 22 23 25 24 23 23 24 24 26 27
22 18 18 16 15 14 16 15 18 19 20 21 33 24 37 34 33 23 28 28 30 31 32 31 31 27 29 26 23 22 22 19 20 21 22 23 23 23 22 23 23 24 26 27
15 21 19 19 19 15 15 12 12 8 12 13 25 26 28 27 19 17 20 28 28 25 24 29 29 32 27 22 22 21 21 19 20 22 23 23 23 22 22 21 22 22 25 27
15 16 14 14 16 14 14 15 17 14 11 14 31 21 30 22 22 20 12 26 29 32 32 31 30 25 21 21 19 18 20 20 21 23 24 23 22 21 20 20 21 24 27 30
7 10 8 10 8 9 9 18 19 25 27 21 26 32 29 23 15 12 20 27 27 28 29 29 23 21 18 18 18 18 20 21 22 23 22 21 20 19 20 22 25 27 30 32
10 16 15 14 11 14 17 17 20 21 14 17 20 27 16 7 9 15 11 14 21 24 27 26 19 16 16 17 18 19 21 20 20 21 20 19 19 21 23 26 28 31 32 31
10 14 17 17 20 20 19 24 25 26 25 13 14 18 13 8 7 17 24 19 21 28 25 16 15 15 15 17 19 20 21 20 19 19 19 18 20 23 26 28 30 30 31 31
12 13 16 19 18 19 21 25 26 26 25 29 26 26 25 20 25 14 29 26 25 16 13 14 12 14 16 19 20 18 19 19 18 17 17 19 21 24 27 28 27 29 30 31
6 8 15 16 16 16 20 21 25 27 28 31 19 30 19 22 26 19 28 31 23 24 26 20 16 14 17 21 21 18 17 16 15 16 18 20 23 24 24 26 26 28 29 29
18 18 17 22 20 21 31 28 26 27 22 29 32 34 38 33 32 28 30 33 23 26 28 25 19 18 16 20 20 17 15 14 15 16 19 21 21 21 22 23 24 25 25 26
18 23 21 28 28 27 31 33 32 34 38 35 37 36 35 32 27 35 33 29 26 27 31 31 24 16 16 19 17 14 12 13 15 17 18 18 18 18 19 20 20 21 22 24
16 27 21 35 24 28 35 32 32 32 33 36 37 43 32 32 30 25 33 26 24 24 28 25 17 14 16 16 14 11 12 13 15 15 14 15 15 15 16 18 18 18 19 19
20 24 23 40 23 24 28 27 28 32 31 31 31 31 25 25 32 26 29 17 18 18 13 15 13 14 14 13 11 10 12 13 12 12 12 12 12 15 15 14 14 15 17 18
28 29 26 32 22 18 29 20 24 30 29 26 24 24 26 25 27 25 21 20 18 13 13 14 12 12 12 11 10 10 11 10 10 9 8 10 11 10 11 12 13 15 16 18
31 29 24 25 22 26 28 22 24 22 26 14 19 20 21 18 18 10 23 15 10 13 12 12 10 10 11 10 9 9 8 7 6 5 7 7 7 9 10 11 13 15 17 17
22 25 27 18 14 15 23 13 22 10 19 7 8 9 13 17 13 17 13 10 10 9 10 9 9 10 10 9 8 6 5 4 2 4 4 5 7 8 10 12 14 15 16 17
20 21 27 27 22 21 23 21 11 12 9 12 15 13 11 12 13 14 9 6 8 9 9 9 10 10 9 8 6 5 3 0 1 2 4 5 7 8 9 11 13 14 15 16
15 15 22 26 24 21 21 23 12 8 15 15 13 15 13 16 15 16 11 9 7 8 9 10 9 9 8 6 5 5 3 3 3 3 3 4 4 5 8 10 11 13 14 15
15 22 17 16 16 18 11 16 10 12 14 9 10 12 9 10 8 11 9 8 8 9 10 10 10 9 7 7 6 5 5 5 5 3 2 1 2 5 8 9 11 13 15 16
18 16 25 17 13 11 8 12 18 13 16 14 12 11 10 9 6 7 7 8 8 10 11 10 9 8 8 8 7 8 8 7 5 4 3 1 2 5 8 10 11 13 15 17
16 17 8 19 21 17 22 14 15 20 14 13 12 14 12 9 9 7 8 9 9 11 10 9 9 10 9 9 10 10 10 9 7 6 4 2 3 6 8 11 13 15 17 18
21 24 21 25 21 21 14 15 16 16 14 13 12 13 11 10 11 10 9 9 9 10 9 10 11 11 10 11 11 11 11 9 8 7 6 6 6 8 10 12 14 17 18 20
Wind_Direction
262 255 256 264 263 262 266 276 281 272 291 258 258 264 260 263 254 265 275 277 275 272 274 274 264 261 261 261 265 271 274 279 286 286 283 283 286 294 299 302 302 303 304 305
258 244 265 270 267 269 264 274 278 275 271 269 269 262 265 266 263 264 276 273 270 263 269 266 258 257 258 260 266 270 275 282 286 283 282 284 290 294 297 298 299 299 301 303
248 255 247 273 268 268 264 268 277 278 282 276 280 268 271 262 260 253 249 268 266 256 268 270 262 257 256 260 264 270 275 281 280 280 283 286 290 293 296 297 297 298 300 301
259 250 256 265 264 258 267 273 281 288 294 288 267 286 279 279 270 242 254 254 240 232 254 266 267 260 258 261 265 270 275 279 279 281 283 287 292 295 295 295 296 298 299 300
235 256 262 265 263 258 269 273 277 290 283 290 272 282 280 279 282 258 258 231 225 233 248 259 267 268 264 263 266 272 277 277 277 278 283 290 292 293 294 295 297 297 299 301
249 251 251 257 264 264 269 281 284 276 270 261 275 271 272 279 276 291 247 221 227 236 252 261 278 279 272 269 271 272 272 273 277 282 287 289 291 293 294 296 297 299 303 305
258 254 255 251 256 262 256 265 275 272 255 255 278 270 266 283 265 276 232 239 229 249 269 284 275 274 269 270 274 274 275 279 282 286 289 291 293 295 297 299 301 306 308 310
274 275 266 232 235 250 260 252 244 276 285 296 292 288 292 297 294 289 231 218 251 251 258 268 279 277 274 275 271 272 279 286 290 291 293 295 297 299 301 304 308 311 313 314
287 260 232 238 223 250 266 249 266 273 275 279 275 280 281 272 268 241 224 217 238 256 266 277 276 273 268 264 269 276 283 289 291 294 296 298 300 302 304 309 312 315 316 317
254 270 260 265 262 254 248 270 283 273 276 267 272 283 300 355 295 294 320 292 275 284 291 284 273 262 266 269 275 281 285 290 291 293 295 299 302 305 310 313 315 316 316 316
245 258 264 260 252 264 269 264 260 257 255 265 273 273 290 303 299 292 304 303 280 269 267 266 259 262 266 274 280 285 288 290 293 295 296 301 306 311 313 315 317 317 317 316
250 274 268 257 261 262 268 267 269 271 280 282 274 268 287 280 278 278 296 296 286 284 275 260 264 273 280 280 281 284 286 288 290 293 299 306 310 313 314 317 319 319 317 316
241 255 270 277 268 256 247 267 266 266 271 264 277 276 281 297 297 280 279 289 289 281 262 239 240 259 273 281 281 281 284 288 292 298 304 310 312 315 318 320 320 319 319 318
250 255 255 265 268 293 290 279 282 284 276 275 272 276 285 293 282 273 274 287 285 290 261 240 242 253 265 276 273 279 283 289 296 303 309 312 315 320 321 321 324 325 326 325
260 258 260 266 271 274 273 274 274 272 277 280 287 286 287 292 297 286 277 276 273 291 260 241 245 256 264 269 275 278 282 290 298 306 311 316 321 324 327 328 332 337 339 333
247 262 269 273 273 275 274 270 269 266 266 268 273 277 284 292 286 281 273 266 271 285 264 270 244 254 260 266 270 273 282 293 303 308 318 324 330 333 338 343 345 346 356 0
250 260 261 268 281 287 275 269 272 272 271 271 278 282 294 291 296 303 280 266 267 282 269 248 240 253 258 262 260 271 286 297 306 320 328 336 345 349 346 345 352 360 5 9
250 250 257 273 275 271 276 279 280 265 274 275 272 287 289 281 285 282 278 283 276 264 234 236 238 248 257 253 262 278 292 304 316 325 342 358 354 353 4 11 14 17 19 20
244 245 253 251 257 269 277 275 282 266 288 283 288 294 290 271 255 218 272 282 254 242 239 227 227 243 247 254 270 284 294 300 320 350 8 4 16 26 28 31 32 31 27 23
230 242 234 247 259 262 272 277 286 279 275 262 276 292 289 296 286 273 254 245 253 250 238 227 235 237 245 259 276 276 284 304 353 24 27 44 49 48 44 40 36 32 25 20
212 219 227 238 248 264 269 295 233 265 276 285 289 295 264 267 265 280 269 295 267 243 237 234 232 236 248 261 253 266 258 170 82 77 69 70 58 47 41 35 31 25 19 15
226 215 226 238 252 266 266 260 265 266 289 289 307 304 292 294 252 261 267 284 261 240 236 233 231 240 248 244 250 227 184 171 144 118 99 74 58 45 37 32 25 19 13 11
226 227 231 226 232 241 236 262 278 288 292 289 309 299 280 298 250 251 262 269 248 233 233 232 234 239 238 237 218 194 183 180 165 161 167 101 43 35 27 19 14 9 5 4
263 252 254 260 269 284 294 297 279 293 275 278 290 301 290 293 261 257 257 249 240 234 235 234 237 243 236 221 208 195 188 188 190 206 211 230 9 11 12 5 1 357 355 355
282 265 271 276 290 264 268 286 270 272 284 270 269 282 285 276 265 253 255 249 236 234 236 238 246 238 231 219 210 202 199 203 209 223 236 273 333 346 348 347 347 347 345 344
269 282 289 286 283 276 271 272 278 277 275 262 258 272 273 265 259 256 265 254 237 238 242 249 244 241 233 221 214 210 213 218 225 238 254 279 307 322 329 333 334 334 334 335
Height
3119 3121 3121 3122 3122 3121 3118 3118 3118 3116 3118 3117 3117 3116 3118 3110 3108 3113 3112 3111 3111 3110 3108 3110 3111 3112 3111 3112 3111 3110 3110 3109 3107 3106 3104 3103 3101 3099 3096 3093 3090 3087 3086 3084
3118 3115 3117 3118 3117 3116 3116 3116 3115 3115 3115 3114 3109 3108 3113 3113 3102 3103 3105 3105 3106 3105 3102 3103 3104 3104 3105 3106 3105 3104 3104 3104 3102 3100 3099 3098 3097 3094 3092 3089 3085 3082 3080 3077
3112 3114 3112 3112 3113 3114 3113 3114 3114 3113 3112 3108 3106 3099 3106 3104 3101 3093 3097 3098 3098 3097 3096 3096 3097 3097 3098 3098 3098 3097 3097 3097 3095 3094 3093 3092 3091 3088 3086 3083 3081 3078 3075 3073
3106 3108 3109 3108 3109 3110 3109 3112 3110 3108 3108 3103 3105 3093 3098 3098 3094 3087 3088 3091 3092 3092 3089 3086 3088 3089 3090 3091 3091 3091 3090 3090 3089 3088 3088 3087 3085 3083 3081 3078 3076 3074 3071 3068
3100 3103 3105 3104 3105 3107 3105 3105 3105 3104 3104 3101 3094 3103 3077 3093 3092 3085 3082 3085 3088 3085 3083 3080 3081 3081 3084 3084 3085 3085 3083 3084 3084 3083 3083 3081 3079 3077 3075 3073 3071 3069 3067 3064
3096 3098 3100 3101 3101 3102 3103 3102 3101 3101 3102 3096 3090 3097 3085 3086 3085 3082 3079 3079 3081 3079 3078 3077 3076 3078 3077 3079 3080 3079 3078 3079 3078 3078 3077 3076 3074 3072 3070 3068 3066 3063 3060 3057
3093 3092 3093 3095 3097 3099 3100 3100 3098 3095 3094 3086 3086 3083 3079 3079 3075 3076 3073 3074 3074 3076 3074 3074 3074 3072 3072 3074 3075 3075 3075 3075 3074 3073 3072 3071 3069 3066 3065 3062 3060 3058 3055 3052
3091 3090 3091 3090 3092 3096 3095 3096 3095 3089 3086 3084 3082 3076 3075 3074 3074 3073 3073 3070 3069 3069 3068 3068 3068 3069 3070 3071 3071 3071 3071 3071 3070 3069 3067 3065 3063 3061 3059 3058 3055 3053 3049 3046
3086 3086 3087 3087 3090 3093 3092 3091 3092 3088 3086 3082 3079 3075 3074 3068 3066 3067 3069 3067 3067 3066 3064 3063 3065 3065 3065 3066 3068 3067 3067 3066 3065 3063 3061 3059 3057 3055 3054 3052 3049 3047 3042 3038
3085 3084 3084 3086 3086 3088 3088 3088 3088 3085 3082 3076 3073 3070 3068 3069 3067 3065 3068 3068 3068 3064 3063 3063 3061 3061 3062 3063 3064 3064 3062 3062 3060 3059 3057 3055 3053 3051 3049 3046 3043 3039 3035 3031
3083 3083 3082 3082 3083 3082 3084 3081 3081 3079 3079 3075 3071 3066 3066 3063 3066 3065 3063 3064 3062 3060 3058 3059 3057 3058 3059 3059 3059 3059 3059 3058 3056 3055 3053 3052 3049 3047 3044 3040 3036 3031 3027 3024
3081 3079 3077 3076 3077 3077 3077 3075 3075 3073 3071 3069 3067 3061 3066 3062 3061 3062 3059 3058 3058 3058 3056 3055 3055 3057 3057 3056 3056 3055 3055 3054 3053 3052 3050 3048 3045 3042 3038 3034 3029 3025 3021 3017
3077 3075 3075 3070 3071 3069 3069 3070 3071 3068 3067 3062 3061 3055 3061 3059 3057 3057 3054 3053 3052 3052 3051 3050 3051 3052 3052 3053 3052 3052 3051 3050 3050 3048 3046 3044 3040 3036 3032 3028 3024 3019 3015 3011
3073 3072 3074 3070 3067 3069 3064 3063 3064 3063 3060 3059 3055 3053 3051 3054 3051 3049 3045 3046 3047 3046 3046 3045 3046 3046 3048 3049 3049 3048 3048 3047 3046 3044 3041 3039 3035 3031 3027 3024 3020 3015 3011 3007
3068 3066 3070 3063 3063 3065 3060 3059 3058 3057 3054 3053 3048 3047 3047 3046 3042 3041 3038 3039 3040 3040 3039 3039 3040 3040 3044 3046 3046 3045 3044 3043 3042 3040 3037 3034 3031 3028 3024 3021 3017 3013 3009 3005
3064 3060 3063 3052 3060 3058 3051 3050 3049 3048 3046 3045 3044 3038 3043 3036 3033 3035 3032 3032 3034 3034 3033 3032 3034 3038 3040 3041 3041 3041 3040 3039 3038 3036 3033 3031 3028 3025 3021 3017 3014 3012 3008 3004
3059 3058 3058 3044 3054 3049 3040 3043 3042 3040 3039 3038 3035 3034 3034 3029 3025 3024 3024 3024 3028 3027 3026 3027 3030 3034 3036 3037 3037 3037 3037 3035 3034 3031 3029 3027 3024 3021 3020 3018 3014 3011 3007 3003
3050 3051 3052 3044 3048 3041 3034 3037 3036 3033 3032 3032 3030 3027 3026 3025 3020 3017 3019 3022 3021 3021 3023 3025 3028 3031 3033 3034 3033 3033 3033 3031 3029 3028 3026 3024 3023 3022 3019 3016 3014 3011 3007 3004
3040 3043 3044 3041 3039 3033 3030 3030 3032 3026 3025 3022 3025 3023 3020 3018 3016 3012 3013 3017 3017 3019 3021 3022 3025 3028 3029 3030 3030 3030 3029 3028 3027 3025 3024 3024 3023 3020 3019 3017 3014 3011 3009 3006
3034 3036 3038 3038 3035 3028 3024 3026 3025 3024 3023 3021 3019 3018 3014 3013 3013 3014 3014 3014 3015 3017 3018 3021 3023 3024 3026 3027 3027 3027 3026 3026 3024 3024 3024 3023 3022 3021 3019 3017 3015 3012 3010 3007
3029 3029 3029 3031 3031 3023 3022 3022 3020 3022 3022 3016 3015 3015 3013 3012 3012 3013 3011 3013 3013 3015 3017 3018 3020 3021 3023 3024 3024 3024 3024 3023 3024 3024 3023 3023 3022 3021 3019 3018 3015 3013 3011 3008
3023 3025 3025 3027 3027 3021 3018 3019 3013 3014 3012 3013 3012 3011 3010 3009 3009 3009 3010 3011 3012 3013 3014 3016 3017 3019 3020 3021 3021 3022 3022 3022 3023 3023 3024 3023 3022 3021 3020 3017 3016 3014 3011 3008
3018 3017 3019 3019 3015 3012 3010 3013 3009 3012 3010 3010 3009 3008 3009 3007 3007 3008 3009 3009 3010 3011 3012 3013 3015 3016 3017 3018 3019 3020 3021 3022 3022 3023 3023 3023 3022 3021 3020 3018 3016 3014 3011 3008
3011 3013 3012 3011 3011 3012 3010 3007 3007 3007 3007 3007 3006 3006 3006 3006 3005 3006 3006 3007 3008 3009 3010 3011 3013 3014 3015 3016 3017 3018 3019 3020 3021 3022 3022 3022 3022 3021 3019 3017 3015 3013 3010 3007
3008 3001 3005 3007 3007 3007 3006 3003 3003 3003 3004 3003 3003 3003 3003 3003 3004 3004 3004 3005 3006 3007 3008 3009 3011 3012 3013 3014 3015 3017 3018 3019 3020 3021 3022 3022 3020 3019 3018 3016 3014 3011 3008 3005
3005 3003 3003 3000 3002 3001 3001 3000 3000 3000 2999 3000 3000 3000 3000 3000 3001 3001 3002 3002 3004 3005 3006 3007 3009 3010 3011 3012 3014 3015 3017 3018 3020 3020 3021 3020 3019 3017 3015 3014 3012 3009 3006 3003